Onweer radar more information blitzortung!


Regen radar more information rain snow radar


Weerstation Alkmaar Centrum

Weerstation Luyksgestel

Website Noardburgum


U vindt ons ook hier:

Het Weer Aktueel

UK Metoffice

European Weather Network

Weather Underground

AWEKAS

Citizen Weather Observer Program (CWOP)

HAMweather, WeatherForYou, PWS Weather



Het weer levert geen direct gevaar op.    Er zijn geen waarschuwingen afgegeven.

Select another period ( hide this area )

Eenheden Periode Custom range Directly to
Metrisch Engels Beide
Dagelijkse Wekelijkse Maandelijkse Jaarlijkse
use both date-selectors for a custom range
previous Dag
With this date

WeatherUnderground graphs for this period ( click here )


Dagelijkse Samenvatting Maandag 20 januari 2020
Tijd Temp. ( °C ) Dew pt. ( °C ) Wind ( km/h ) van Windvlaag ( km/h ) Luchtdruk ( hPa ) Humid.( % ) Rainrate ( cm ) Zonneschijn ( W/m2 )
Hoog7,4 6,0 16,3 ZW ( 669/1234 ) 17,7 1045,9 96 - 125
Gemiddeld4,2 3,3 5,6 ZW #101/220 8,7 1045,3 94 - 55 #100/220
Laag0,2 -0,5 -   1,6 1043,6 88 -  
Dagelijkse Tabular details for Maandag 20 januari 2020
Tijd Temp. ( °C ) Dew pt. ( °C ) Wind ( km/h ) van Windvlaag ( km/h ) Luchtdruk ( hPa ) Humid.( % ) Rainrate ( cm ) Zonneschijn ( W/m2 )
00:00 1,7 1,0 1,4 Westen 3,2 1045,3 95 - -
00:05 1,6 0,9 1,4 Westen 3,2 1045,3 95 - -
00:10 1,5 0,8 1,4 Westen 3,2 1045,3 95 - -
00:15 2,0 1,3 3,2 Westen 4,8 1045,3 95 - -
00:20 2,2 1,6 3,2 Westen 4,8 1045,3 96 - -
00:25 2,0 1,3 3,2 Westen 3,2 1045,3 95 - -
00:30 1,6 0,9 3,2 Westen 3,2 1045,3 95 - -
00:35 1,4 0,7 1,4 Westen 3,2 1045,3 95 - -
00:40 1,4 0,7 1,4 Westen 3,2 1045,3 95 - -
00:45 1,3 0,6 1,4 Westen 3,2 1045,6 95 - -
00:50 1,3 0,6 3,2 Westen 3,2 1045,6 95 - -
00:55 1,6 1,0 3,2 Westen 4,8 1045,6 96 - -
01:00 2,3 1,7 3,2 Westen 4,8 1045,6 96 - -
01:05 2,6 2,0 3,2 Westen 6,4 1045,6 96 - -
01:10 2,4 1,8 3,2 Westen 4,8 1045,6 96 - -
01:15 2,3 1,7 3,2 Westen 4,8 1045,6 96 - -
01:20 2,3 1,7 3,2 Westen 4,8 1045,6 96 - -
01:25 1,8 1,2 1,4 Westen 4,8 1045,6 96 - -
01:30 1,4 0,7 3,2 Westen 4,8 1045,3 95 - -
01:35 1,7 1,1 3,2 Westen 4,8 1045,3 96 - -
01:40 2,0 1,4 3,2 Westen 3,2 1045,6 96 - -
01:45 1,5 0,9 1,4 Westen 3,2 1045,6 96 - -
01:50 1,3 0,7 3,2 Westen 4,8 1045,6 96 - -
01:55 1,1 0,4 3,2 Westen 4,8 1045,6 95 - -
02:00 1,0 0,4 3,2 Westen 3,2 1045,6 96 - -
02:05 0,9 0,3 1,4 Westen 3,2 1045,6 96 - -
02:10 1,6 1,0 3,2 Westen 4,8 1045,6 96 - -
02:15 1,6 1,0 3,2 Westen 4,8 1045,6 96 - -
02:20 1,3 0,7 4,7 Westen 4,8 1045,6 96 - -
02:25 1,0 0,4 3,2 Westen 4,8 1045,6 96 - -
02:30 0,8 0,1 1,4 Westen 3,2 1045,6 95 - -
02:35 0,7 0,1   Windstil 1,6 1045,6 96 - -
02:40 0,5 -0,2 1,4 Westen 3,2 1045,9 95 - -
02:45 0,4 -0,2 1,4 Westen 3,2 1045,9 96 - -
02:50 0,3 -0,3 1,4 Westen 4,8 1045,9 96 - -
02:55 0,3 -0,3   Windstil 1,6 1045,9 96 - -
03:00 0,2 -0,5 1,4 Westen 3,2 1045,9 95 - -
03:05 0,2 -0,4 3,2 Westen 3,2 1045,6 96 - -
03:10 0,2 -0,4 3,2 Westen 3,2 1045,6 96 - -
03:15 0,4 -0,2 3,2 Westen 3,2 1045,6 96 - -
03:20 0,6 0,0 1,4 Westen 3,2 1045,9 96 - -
03:25 0,6 0,0 3,2 Westen 3,2 1045,6 96 - -
03:30 0,6 0,0 1,4 Westen 4,8 1045,9 96 - -
03:35 0,8 0,2 3,2 WZW 4,8 1045,6 96 - -
03:40 0,9 0,3 4,7 ZZW 4,8 1045,6 96 - -
03:45 1,3 0,7 4,7 ZW 6,4 1045,6 96 - -
03:50 1,6 1,0 3,2 ZW 4,8 1045,6 96 - -
03:55 1,7 1,1 1,4 ZW 4,8 1045,6 96 - -
04:00 1,7 1,1 1,4 ZW 4,8 1045,6 96 - -
04:05 1,8 1,2 3,2 ZW 4,8 1045,6 96 - -
04:10 1,9 1,3 3,2 ZW 3,2 1045,3 96 - -
04:15 2,1 1,5 3,2 ZW 4,8 1045,3 96 - -
04:20 2,2 1,6 4,7 ZW 4,8 1045,3 96 - -
04:25 2,2 1,6 3,2 ZW 4,8 1045,3 96 - -
04:30 2,2 1,6 3,2 ZW 3,2 1045,6 96 - -
04:35 2,2 1,6 1,4 ZW 4,8 1045,3 96 - -
04:40 2,2 1,6 4,7 WZW 4,8 1045,3 96 - -
04:45 2,2 1,6 1,4 WZW 4,8 1045,3 96 - -
04:50 2,2 1,6 1,4 WZW 4,8 1045,3 96 - -
04:55 2,2 1,6 4,7 ZW 6,4 1045,3 96 - -
05:00 2,2 1,6 1,4 ZW 6,4 1045,3 96 - -
05:05 2,2 1,6 1,4 ZW 3,2 1045,3 96 - -
05:10 2,3 1,7 3,2 ZW 3,2 1045,3 96 - -
05:15 2,3 1,7 3,2 ZW 4,8 1045,3 96 - -
05:20 2,3 1,7 3,2 ZW 3,2 1045,3 96 - -
05:25 2,3 1,7 3,2 ZW 4,8 1045,3 96 - -
05:30 2,5 1,9 1,4 ZW 4,8 1045,3 96 - -
05:35 2,6 2,0 1,4 ZW 6,4 1045,3 96 - -
05:40 2,6 2,0 1,4 ZZW 4,8 1045,3 96 - -
05:45 2,6 2,0 1,4 ZZW 4,8 1045,3 96 - -
05:50 2,6 2,0 3,2 ZZW 8,0 1045,3 96 - -
05:55 2,7 2,1 3,2 ZZW 3,2 1045,3 96 - -
06:00 2,7 2,1 3,2 ZZW 6,4 1045,3 96 - -
06:05 2,7 2,1 1,4 ZZW 4,8 1045,3 96 - -
06:10 2,7 2,1 1,4 ZZW 4,8 1045,3 96 - -
06:15 2,8 2,2 3,2 ZZW 6,4 1045,3 96 - -
06:20 2,8 2,2 4,7 ZW 6,4 1045,3 96 - -
06:25 2,8 2,2 3,2 WZW 6,4 1045,3 96 - -
06:30 2,8 2,2 3,2 ZZW 8,0 1045,3 96 - -
06:35 2,9 2,3 6,4 ZZW 6,4 1045,3 96 - -
06:40 2,9 2,3 4,7 ZW 6,4 1045,6 96 - -
06:45 2,9 2,3 3,2 ZW 4,8 1045,6 96 - -
06:50 2,9 2,3 3,2 ZW 6,4 1045,6 96 - -
06:55 2,9 2,3 4,7 ZW 4,8 1045,6 96 - -
07:00 2,9 2,3 3,2 WZW 4,8 1045,6 96 - -
07:05 2,9 2,3 1,4 WZW 4,8 1045,6 96 - -
07:10 3,0 2,4 4,7 ZW 6,4 1045,6 96 - -
07:15 3,1 2,5 4,7 ZW 6,4 1045,6 96 - -
07:20 3,2 2,6 7,9 ZW 8,0 1045,3 96 - -
07:25 3,2 2,6 3,2 ZW 8,0 1045,6 96 - -
07:30 3,2 2,6 3,2 ZW 6,4 1045,3 96 - -
07:35 3,3 2,7 4,7 ZW 6,4 1045,3 96 - -
07:40 3,3 2,7 3,2 ZW 6,4 1045,3 96 - -
07:45 3,4 2,8 3,2 Zuiden 6,4 1045,6 96 - -
07:50 3,4 2,8 3,2 ZZW 8,0 1045,6 96 - -
07:55 3,5 2,9 4,7 ZW 8,0 1045,6 96 - -
08:00 3,5 2,9 6,4 Zuiden 8,0 1045,6 96 - -
08:05 3,6 3,0 4,7 Zuiden 4,8 1045,3 96 - -
08:10 3,7 3,1 4,7 ZW 8,0 1045,6 96 - -
08:15 3,7 3,1 3,2 Zuiden 9,7 1045,6 96 - -
08:20 3,7 3,1 4,7 ZZW 8,0 1045,6 96 - -
08:25 3,7 3,1 3,2 Zuiden 6,4 1045,6 96 - -
08:30 3,7 3,1 3,2 Zuiden 8,0 1045,6 96 - -
08:35 3,8 3,2 7,9 ZZW 8,0 1045,6 96 - -
08:40 3,8 3,2 6,4 Zuiden 9,7 1045,6 96 - -
08:45 3,8 3,2 3,2 ZZW 6,4 1045,6 96 - 5
08:50 3,9 3,3 4,7 ZW 8,0 1045,6 96 - 5
08:55 3,9 3,3 4,7 ZZO 8,0 1045,6 96 - 7
09:00 3,9 3,3 4,7 Zuiden 6,4 1045,9 96 - 7
09:05 4,1 3,5 4,7 Zuiden 6,4 1045,9 96 - 9
09:10 4,1 3,5 6,4 ZW 8,0 1045,9 96 - 12
09:15 4,2 3,6 4,7 ZW 11,3 1045,9 96 - 14
09:20 4,3 3,7 3,2 ZZW 9,7 1045,9 96 - 19
09:25 4,3 3,7 7,9 ZZW 8,0 1045,9 96 - 26
09:30 4,4 3,8 7,9 ZZW 8,0 1045,9 96 - 35
09:35 4,5 3,9 7,9 ZW 11,3 1045,9 96 - 40
09:40 4,6 4,0 9,7 ZZW 12,9 1045,9 96 - 46
09:45 4,7 4,1 4,7 ZZW 8,0 1045,9 96 - 42
09:50 4,8 4,2 7,9 ZZW 11,3 1045,9 96 - 44
09:55 4,8 4,2 7,9 ZZW 14,5 1045,9 96 - 44
10:00 4,8 4,2 6,4 ZZW 12,9 1045,9 96 - 44
10:05 4,9 4,3 7,9 ZW 11,3 1045,9 96 - 51
10:10 5,1 4,5 7,9 ZZW 11,3 1045,9 96 - 58
10:15 5,1 4,5 9,7 ZW 14,5 1045,9 96 - 58
10:20 5,2 4,6 6,4 ZZW 9,7 1045,9 96 - 58
10:25 5,2 4,6 9,7 ZW 11,3 1045,9 96 - 56
10:30 5,3 4,6 7,9 ZZW 12,9 1045,9 95 - 54
10:35 5,3 4,6 7,9 ZW 14,5 1045,9 95 - 54
10:40 5,3 4,6 11,1 ZZW 11,3 1045,9 95 - 54
10:45 5,3 4,6 9,7 ZW 12,9 1045,9 95 - 47
10:50 5,4 4,7 9,7 ZW 12,9 1045,9 95 - 40
10:55 5,4 4,7 6,4 ZW 9,7 1045,9 95 - 40
11:00 5,4 4,7 6,4 ZW 8,0 1045,9 95 - 42
11:05 5,4 4,7 4,7 ZZW 9,7 1045,9 95 - 46
11:10 5,4 4,7 7,9 ZZW 9,7 1045,9 95 - 53
11:15 5,6 4,9 6,4 ZW 12,9 1045,9 95 - 63
11:20 5,6 4,9 6,4 ZZW 11,3 1045,9 95 - 58
11:25 5,7 4,8 7,9 ZZW 12,9 1045,9 94 - 56
11:30 5,7 4,8 6,4 ZZW 9,7 1045,9 94 - 70
11:35 5,8 4,9 4,7 ZZW 8,0 1045,9 94 - 76
11:40 5,8 4,9 7,9 ZW 11,3 1045,9 94 - 69
11:45 5,9 5,0 9,7 ZW 9,7 1045,9 94 - 56
11:50 5,9 5,0 6,4 ZZW 9,7 1045,9 94 - 49
11:55 5,9 5,0 7,9 ZW 12,9 1045,9 94 - 46
12:00 5,9 5,0 7,9 ZZW 11,3 1045,9 94 - 40
12:05 6,0 5,1 4,7 ZZW 11,3 1045,6 94 - 46
12:10 6,0 5,1 7,9 ZW 9,7 1045,6 94 - 63
12:15 6,1 5,2 6,4 ZW 12,9 1045,6 94 - 70
12:20 6,1 5,2 7,9 ZW 11,3 1045,6 94 - 69
12:25 6,2 5,3 13,0 WZW 14,5 1045,6 94 - 69
12:30 6,3 5,4 6,4 ZW 11,3 1045,6 94 - 77
12:35 6,3 5,4 7,9 ZW 11,3 1045,6 94 - 90
12:40 6,4 5,4 6,4 ZW 16,1 1045,6 93 - 121
12:45 6,6 5,7 7,9 WZW 12,9 1045,6 94 - 107
12:50 6,7 5,6 9,7 ZW 12,9 1045,6 93 - 93
12:55 6,7 5,6 7,9 Zuiden 14,5 1045,6 93 - 90
13:00 6,8 5,7 9,7 ZZW 11,3 1045,6 93 - 95
13:05 6,8 5,7 7,9 ZW 9,7 1045,6 93 - 125
13:10 7,0 5,8 6,4 ZW 16,1 1045,6 92 - 123
13:15 7,1 5,9 7,9 ZZW 12,9 1045,3 92 - 104
13:20 7,1 5,9 11,1 ZW 12,9 1045,3 92 - 88
13:25 7,1 5,9 6,4 ZW 14,5 1045,3 92 - 90
13:30 7,2 6,0 11,1 ZW 12,9 1045,6 92 - 95
13:35 7,2 6,0 7,9 ZW 14,5 1045,3 92 - 111
13:40 7,3 5,9 9,7 ZW 12,9 1045,3 91 - 88
13:45 7,3 5,9 16,3 WZW 17,7 1045,3 91 - 79
13:50 7,3 5,9 7,9 ZW 12,9 1045,3 91 - 69
13:55 7,2 5,7 11,1 ZW 12,9 1045,3 90 - 65
14:00 7,2 5,7 13,0 ZW 14,5 1044,9 90 - 74
14:05 7,2 5,7 11,1 ZW 14,5 1045,3 90 - 79
14:10 7,3 5,8 9,7 Zuiden 14,5 1044,9 90 - 76
14:15 7,2 5,7 9,7 ZW 16,1 1044,9 90 - 91
14:20 7,3 5,8 7,9 ZW 16,1 1044,9 90 - 97
14:25 7,3 5,6 7,9 ZW 16,1 1044,9 89 - 77
14:30 7,3 5,6 7,9 Zuiden 11,3 1044,9 89 - 67
14:35 7,3 5,6 4,7 ZZW 9,7 1045,3 89 - 65
14:40 7,3 5,6 6,4 Zuiden 9,7 1044,9 89 - 113
14:45 7,3 5,6 9,7 ZZW 14,5 1044,9 89 - 118
14:50 7,4 5,7 11,1 ZW 12,9 1044,9 89 - 91
14:55 7,3 5,6 7,9 ZW 17,7 1044,9 89 - 79
15:00 7,3 5,6 6,4 ZW 14,5 1044,9 89 - 69
15:05 7,3 5,6 6,4 ZZW 16,1 1044,6 89 - 58
15:10 7,3 5,6 13,0 Zuiden 14,5 1044,6 89 - 51
15:15 7,3 5,6 7,9 ZW 12,9 1044,6 89 - 39
15:20 7,2 5,5 6,4 ZZW 14,5 1044,6 89 - 30
15:25 7,1 5,4 7,9 ZW 17,7 1044,6 89 - 30
15:30 7,1 5,4 14,3 ZW 17,7 1044,2 89 - 33
15:35 7,1 5,2 9,7 ZW 16,1 1044,2 88 - 33
15:40 7,1 5,2 9,7 ZZW 14,5 1044,6 88 - 40
15:45 7,1 5,2 9,7 ZW 17,7 1044,6 88 - 53
15:50 7,1 5,2 11,1 ZW 14,5 1044,2 88 - 51
15:55 7,0 5,1 11,1 ZW 14,5 1044,2 88 - 44
16:00 7,0 5,1 9,7 ZZW 12,9 1044,2 88 - 33
16:05 6,9 5,2 6,4 ZW 14,5 1044,2 89 - 25
16:10 6,9 5,2 9,7 ZZW 14,5 1044,2 89 - 28
16:15 6,8 5,1 13,0 ZW 16,1 1044,2 89 - 28
16:20 6,8 5,0 7,9 ZW 11,3 1044,2 88 - 23
16:25 6,8 5,0 9,7 ZZW 16,1 1044,2 88 - 16
16:30 6,8 5,0 9,7 ZW 14,5 1044,2 88 - 11
16:35 6,8 5,0 11,1 ZW 16,1 1044,2 88 - 7
16:40 6,7 5,0 6,4 ZW 14,5 1043,9 89 - 7
16:45 6,6 4,9 4,7 ZZW 12,9 1043,9 89 - 7
16:50 6,5 4,8 9,7 ZW 11,3 1043,9 89 - 5
16:55 6,3 4,6 9,7 ZZW 11,3 1043,9 89 - 5
17:00 6,1 4,6 7,9 ZW 11,3 1043,9 90 - 5
17:05 6,1 4,6 6,4 ZW 8,0 1043,9 90 - -
17:10 5,9 4,4 4,7 ZW 12,9 1043,9 90 - -
17:15 5,8 4,3 7,9 ZW 11,3 1043,9 90 - -
17:20 5,7 4,2 11,1 ZW 11,3 1043,9 90 - -
17:25 5,6 4,2 7,9 ZZW 9,7 1043,9 91 - -
17:30 5,5 4,1 6,4 ZZW 11,3 1043,9 91 - -
17:35 5,4 4,0 6,4 ZW 8,0 1043,9 91 - -
17:40 5,3 4,0 6,4 ZW 11,3 1043,9 91 - -
17:45 5,2 3,9 7,9 ZW 9,7 1043,9 91 - -
17:50 5,0 3,7 7,9 ZW 9,7 1043,9 91 - -
17:55 4,9 3,6 6,4 ZZW 9,7 1043,9 91 - -
18:00 4,8 3,5 4,7 ZW 8,0 1043,6 91 - -
18:05 4,7 3,5 4,7 ZW 8,0 1043,6 92 - -
18:10 4,6 3,4 4,7 ZW 6,4 1043,9 92 - -
18:15 4,4 3,2 4,7 ZW 6,4 1043,9 92 - -
Dagelijkse Samenvatting Maandag 20 januari 2020
Tijd Temp. ( °C ) Dew pt. ( °C ) Wind ( km/h ) van Windvlaag ( km/h ) Luchtdruk ( hPa ) Humid.( % ) Rainrate ( cm ) Zonneschijn ( W/m2 )
Hoog7,4 6,0 16,3 ZW ( 669/1234 ) 17,7 1045,9 96 - 125
Gemiddeld4,2 3,3 5,6 ZW #101/220 8,7 1045,3 94 - 55 #100/220
Laag0,2 -0,5 -   1,6 1043,6 88 -  
Dagelijkse Tabular details for Maandag 20 januari 2020
Tijd Temp. ( °C ) Dew pt. ( °C ) Wind ( km/h ) van Windvlaag ( km/h ) Luchtdruk ( hPa ) Humid.( % ) Rainrate ( cm ) Zonneschijn ( W/m2 )
00:00 1,7 1,0 1,4 Westen 3,2 1045,3 95 - -
00:05 1,6 0,9 1,4 Westen 3,2 1045,3 95 - -
00:10 1,5 0,8 1,4 Westen 3,2 1045,3 95 - -
00:15 2,0 1,3 3,2 Westen 4,8 1045,3 95 - -
00:20 2,2 1,6 3,2 Westen 4,8 1045,3 96 - -
00:25 2,0 1,3 3,2 Westen 3,2 1045,3 95 - -
00:30 1,6 0,9 3,2 Westen 3,2 1045,3 95 - -
00:35 1,4 0,7 1,4 Westen 3,2 1045,3 95 - -
00:40 1,4 0,7 1,4 Westen 3,2 1045,3 95 - -
00:45 1,3 0,6 1,4 Westen 3,2 1045,6 95 - -
00:50 1,3 0,6 3,2 Westen 3,2 1045,6 95 - -
00:55 1,6 1,0 3,2 Westen 4,8 1045,6 96 - -
01:00 2,3 1,7 3,2 Westen 4,8 1045,6 96 - -
01:05 2,6 2,0 3,2 Westen 6,4 1045,6 96 - -
01:10 2,4 1,8 3,2 Westen 4,8 1045,6 96 - -
01:15 2,3 1,7 3,2 Westen 4,8 1045,6 96 - -
01:20 2,3 1,7 3,2 Westen 4,8 1045,6 96 - -
01:25 1,8 1,2 1,4 Westen 4,8 1045,6 96 - -
01:30 1,4 0,7 3,2 Westen 4,8 1045,3 95 - -
01:35 1,7 1,1 3,2 Westen 4,8 1045,3 96 - -
01:40 2,0 1,4 3,2 Westen 3,2 1045,6 96 - -
01:45 1,5 0,9 1,4 Westen 3,2 1045,6 96 - -
01:50 1,3 0,7 3,2 Westen 4,8 1045,6 96 - -
01:55 1,1 0,4 3,2 Westen 4,8 1045,6 95 - -
02:00 1,0 0,4 3,2 Westen 3,2 1045,6 96 - -
02:05 0,9 0,3 1,4 Westen 3,2 1045,6 96 - -
02:10 1,6 1,0 3,2 Westen 4,8 1045,6 96 - -
02:15 1,6 1,0 3,2 Westen 4,8 1045,6 96 - -
02:20 1,3 0,7 4,7 Westen 4,8 1045,6 96 - -
02:25 1,0 0,4 3,2 Westen 4,8 1045,6 96 - -
02:30 0,8 0,1 1,4 Westen 3,2 1045,6 95 - -
02:35 0,7 0,1   Windstil 1,6 1045,6 96 - -
02:40 0,5 -0,2 1,4 Westen 3,2 1045,9 95 - -
02:45 0,4 -0,2 1,4 Westen 3,2 1045,9 96 - -
02:50 0,3 -0,3 1,4 Westen 4,8 1045,9 96 - -
02:55 0,3 -0,3   Windstil 1,6 1045,9 96 - -
03:00 0,2 -0,5 1,4 Westen 3,2 1045,9 95 - -
03:05 0,2 -0,4 3,2 Westen 3,2 1045,6 96 - -
03:10 0,2 -0,4 3,2 Westen 3,2 1045,6 96 - -
03:15 0,4 -0,2 3,2 Westen 3,2 1045,6 96 - -
03:20 0,6 0,0 1,4 Westen 3,2 1045,9 96 - -
03:25 0,6 0,0 3,2 Westen 3,2 1045,6 96 - -
03:30 0,6 0,0 1,4 Westen 4,8 1045,9 96 - -
03:35 0,8 0,2 3,2 WZW 4,8 1045,6 96 - -
03:40 0,9 0,3 4,7 ZZW 4,8 1045,6 96 - -
03:45 1,3 0,7 4,7 ZW 6,4 1045,6 96 - -
03:50 1,6 1,0 3,2 ZW 4,8 1045,6 96 - -
03:55 1,7 1,1 1,4 ZW 4,8 1045,6 96 - -
04:00 1,7 1,1 1,4 ZW 4,8 1045,6 96 - -
04:05 1,8 1,2 3,2 ZW 4,8 1045,6 96 - -
04:10 1,9 1,3 3,2 ZW 3,2 1045,3 96 - -
04:15 2,1 1,5 3,2 ZW 4,8 1045,3 96 - -
04:20 2,2 1,6 4,7 ZW 4,8 1045,3 96 - -
04:25 2,2 1,6 3,2 ZW 4,8 1045,3 96 - -
04:30 2,2 1,6 3,2 ZW 3,2 1045,6 96 - -
04:35 2,2 1,6 1,4 ZW 4,8 1045,3 96 - -
04:40 2,2 1,6 4,7 WZW 4,8 1045,3 96 - -
04:45 2,2 1,6 1,4 WZW 4,8 1045,3 96 - -
04:50 2,2 1,6 1,4 WZW 4,8 1045,3 96 - -
04:55 2,2 1,6 4,7 ZW 6,4 1045,3 96 - -
05:00 2,2 1,6 1,4 ZW 6,4 1045,3 96 - -
05:05 2,2 1,6 1,4 ZW 3,2 1045,3 96 - -
05:10 2,3 1,7 3,2 ZW 3,2 1045,3 96 - -
05:15 2,3 1,7 3,2 ZW 4,8 1045,3 96 - -
05:20 2,3 1,7 3,2 ZW 3,2 1045,3 96 - -
05:25 2,3 1,7 3,2 ZW 4,8 1045,3 96 - -
05:30 2,5 1,9 1,4 ZW 4,8 1045,3 96 - -
05:35 2,6 2,0 1,4 ZW 6,4 1045,3 96 - -
05:40 2,6 2,0 1,4 ZZW 4,8 1045,3 96 - -
05:45 2,6 2,0 1,4 ZZW 4,8 1045,3 96 - -
05:50 2,6 2,0 3,2 ZZW 8,0 1045,3 96 - -
05:55 2,7 2,1 3,2 ZZW 3,2 1045,3 96 - -
06:00 2,7 2,1 3,2 ZZW 6,4 1045,3 96 - -
06:05 2,7 2,1 1,4 ZZW 4,8 1045,3 96 - -
06:10 2,7 2,1 1,4 ZZW 4,8 1045,3 96 - -
06:15 2,8 2,2 3,2 ZZW 6,4 1045,3 96 - -
06:20 2,8 2,2 4,7 ZW 6,4 1045,3 96 - -
06:25 2,8 2,2 3,2 WZW 6,4 1045,3 96 - -
06:30 2,8 2,2 3,2 ZZW 8,0 1045,3 96 - -
06:35 2,9 2,3 6,4 ZZW 6,4 1045,3 96 - -
06:40 2,9 2,3 4,7 ZW 6,4 1045,6 96 - -
06:45 2,9 2,3 3,2 ZW 4,8 1045,6 96 - -
06:50 2,9 2,3 3,2 ZW 6,4 1045,6 96 - -
06:55 2,9 2,3 4,7 ZW 4,8 1045,6 96 - -
07:00 2,9 2,3 3,2 WZW 4,8 1045,6 96 - -
07:05 2,9 2,3 1,4 WZW 4,8 1045,6 96 - -
07:10 3,0 2,4 4,7 ZW 6,4 1045,6 96 - -
07:15 3,1 2,5 4,7 ZW 6,4 1045,6 96 - -
07:20 3,2 2,6 7,9 ZW 8,0 1045,3 96 - -
07:25 3,2 2,6 3,2 ZW 8,0 1045,6 96 - -
07:30 3,2 2,6 3,2 ZW 6,4 1045,3 96 - -
07:35 3,3 2,7 4,7 ZW 6,4 1045,3 96 - -
07:40 3,3 2,7 3,2 ZW 6,4 1045,3 96 - -
07:45 3,4 2,8 3,2 Zuiden 6,4 1045,6 96 - -
07:50 3,4 2,8 3,2 ZZW 8,0 1045,6 96 - -
07:55 3,5 2,9 4,7 ZW 8,0 1045,6 96 - -
08:00 3,5 2,9 6,4 Zuiden 8,0 1045,6 96 - -
08:05 3,6 3,0 4,7 Zuiden 4,8 1045,3 96 - -
08:10 3,7 3,1 4,7 ZW 8,0 1045,6 96 - -
08:15 3,7 3,1 3,2 Zuiden 9,7 1045,6 96 - -
08:20 3,7 3,1 4,7 ZZW 8,0 1045,6 96 - -
08:25 3,7 3,1 3,2 Zuiden 6,4 1045,6 96 - -
08:30 3,7 3,1 3,2 Zuiden 8,0 1045,6 96 - -
08:35 3,8 3,2 7,9 ZZW 8,0 1045,6 96 - -
08:40 3,8 3,2 6,4 Zuiden 9,7 1045,6 96 - -
08:45 3,8 3,2 3,2 ZZW 6,4 1045,6 96 - 5
08:50 3,9 3,3 4,7 ZW 8,0 1045,6 96 - 5
08:55 3,9 3,3 4,7 ZZO 8,0 1045,6 96 - 7
09:00 3,9 3,3 4,7 Zuiden 6,4 1045,9 96 - 7
09:05 4,1 3,5 4,7 Zuiden 6,4 1045,9 96 - 9
09:10 4,1 3,5 6,4 ZW 8,0 1045,9 96 - 12
09:15 4,2 3,6 4,7 ZW 11,3 1045,9 96 - 14
09:20 4,3 3,7 3,2 ZZW 9,7 1045,9 96 - 19
09:25 4,3 3,7 7,9 ZZW 8,0 1045,9 96 - 26
09:30 4,4 3,8 7,9 ZZW 8,0 1045,9 96 - 35
09:35 4,5 3,9 7,9 ZW 11,3 1045,9 96 - 40
09:40 4,6 4,0 9,7 ZZW 12,9 1045,9 96 - 46
09:45 4,7 4,1 4,7 ZZW 8,0 1045,9 96 - 42
09:50 4,8 4,2 7,9 ZZW 11,3 1045,9 96 - 44
09:55 4,8 4,2 7,9 ZZW 14,5 1045,9 96 - 44
10:00 4,8 4,2 6,4 ZZW 12,9 1045,9 96 - 44
10:05 4,9 4,3 7,9 ZW 11,3 1045,9 96 - 51
10:10 5,1 4,5 7,9 ZZW 11,3 1045,9 96 - 58
10:15 5,1 4,5 9,7 ZW 14,5 1045,9 96 - 58
10:20 5,2 4,6 6,4 ZZW 9,7 1045,9 96 - 58
10:25 5,2 4,6 9,7 ZW 11,3 1045,9 96 - 56
10:30 5,3 4,6 7,9 ZZW 12,9 1045,9 95 - 54
10:35 5,3 4,6 7,9 ZW 14,5 1045,9 95 - 54
10:40 5,3 4,6 11,1 ZZW 11,3 1045,9 95 - 54
10:45 5,3 4,6 9,7 ZW 12,9 1045,9 95 - 47
10:50 5,4 4,7 9,7 ZW 12,9 1045,9 95 - 40
10:55 5,4 4,7 6,4 ZW 9,7 1045,9 95 - 40
11:00 5,4 4,7 6,4 ZW 8,0 1045,9 95 - 42
11:05 5,4 4,7 4,7 ZZW 9,7 1045,9 95 - 46
11:10 5,4 4,7 7,9 ZZW 9,7 1045,9 95 - 53
11:15 5,6 4,9 6,4 ZW 12,9 1045,9 95 - 63
11:20 5,6 4,9 6,4 ZZW 11,3 1045,9 95 - 58
11:25 5,7 4,8 7,9 ZZW 12,9 1045,9 94 - 56
11:30 5,7 4,8 6,4 ZZW 9,7 1045,9 94 - 70
11:35 5,8 4,9 4,7 ZZW 8,0 1045,9 94 - 76
11:40 5,8 4,9 7,9 ZW 11,3 1045,9 94 - 69
11:45 5,9 5,0 9,7 ZW 9,7 1045,9 94 - 56
11:50 5,9 5,0 6,4 ZZW 9,7 1045,9 94 - 49
11:55 5,9 5,0 7,9 ZW 12,9 1045,9 94 - 46
12:00 5,9 5,0 7,9 ZZW 11,3 1045,9 94 - 40
12:05 6,0 5,1 4,7 ZZW 11,3 1045,6 94 - 46
12:10 6,0 5,1 7,9 ZW 9,7 1045,6 94 - 63
12:15 6,1 5,2 6,4 ZW 12,9 1045,6 94 - 70
12:20 6,1 5,2 7,9 ZW 11,3 1045,6 94 - 69
12:25 6,2 5,3 13,0 WZW 14,5 1045,6 94 - 69
12:30 6,3 5,4 6,4 ZW 11,3 1045,6 94 - 77
12:35 6,3 5,4 7,9 ZW 11,3 1045,6 94 - 90
12:40 6,4 5,4 6,4 ZW 16,1 1045,6 93 - 121
12:45 6,6 5,7 7,9 WZW 12,9 1045,6 94 - 107
12:50 6,7 5,6 9,7 ZW 12,9 1045,6 93 - 93
12:55 6,7 5,6 7,9 Zuiden 14,5 1045,6 93 - 90
13:00 6,8 5,7 9,7 ZZW 11,3 1045,6 93 - 95
13:05 6,8 5,7 7,9 ZW 9,7 1045,6 93 - 125
13:10 7,0 5,8 6,4 ZW 16,1 1045,6 92 - 123
13:15 7,1 5,9 7,9 ZZW 12,9 1045,3 92 - 104
13:20 7,1 5,9 11,1 ZW 12,9 1045,3 92 - 88
13:25 7,1 5,9 6,4 ZW 14,5 1045,3 92 - 90
13:30 7,2 6,0 11,1 ZW 12,9 1045,6 92 - 95
13:35 7,2 6,0 7,9 ZW 14,5 1045,3 92 - 111
13:40 7,3 5,9 9,7 ZW 12,9 1045,3 91 - 88
13:45 7,3 5,9 16,3 WZW 17,7 1045,3 91 - 79
13:50 7,3 5,9 7,9 ZW 12,9 1045,3 91 - 69
13:55 7,2 5,7 11,1 ZW 12,9 1045,3 90 - 65
14:00 7,2 5,7 13,0 ZW 14,5 1044,9 90 - 74
14:05 7,2 5,7 11,1 ZW 14,5 1045,3 90 - 79
14:10 7,3 5,8 9,7 Zuiden 14,5 1044,9 90 - 76
14:15 7,2 5,7 9,7 ZW 16,1 1044,9 90 - 91
14:20 7,3 5,8 7,9 ZW 16,1 1044,9 90 - 97
14:25 7,3 5,6 7,9 ZW 16,1 1044,9 89 - 77
14:30 7,3 5,6 7,9 Zuiden 11,3 1044,9 89 - 67
14:35 7,3 5,6 4,7 ZZW 9,7 1045,3 89 - 65
14:40 7,3 5,6 6,4 Zuiden 9,7 1044,9 89 - 113
14:45 7,3 5,6 9,7 ZZW 14,5 1044,9 89 - 118
14:50 7,4 5,7 11,1 ZW 12,9 1044,9 89 - 91
14:55 7,3 5,6 7,9 ZW 17,7 1044,9 89 - 79
15:00 7,3 5,6 6,4 ZW 14,5 1044,9 89 - 69
15:05 7,3 5,6 6,4 ZZW 16,1 1044,6 89 - 58
15:10 7,3 5,6 13,0 Zuiden 14,5 1044,6 89 - 51
15:15 7,3 5,6 7,9 ZW 12,9 1044,6 89 - 39
15:20 7,2 5,5 6,4 ZZW 14,5 1044,6 89 - 30
15:25 7,1 5,4 7,9 ZW 17,7 1044,6 89 - 30
15:30 7,1 5,4 14,3 ZW 17,7 1044,2 89 - 33
15:35 7,1 5,2 9,7 ZW 16,1 1044,2 88 - 33
15:40 7,1 5,2 9,7 ZZW 14,5 1044,6 88 - 40
15:45 7,1 5,2 9,7 ZW 17,7 1044,6 88 - 53
15:50 7,1 5,2 11,1 ZW 14,5 1044,2 88 - 51
15:55 7,0 5,1 11,1 ZW 14,5 1044,2 88 - 44
16:00 7,0 5,1 9,7 ZZW 12,9 1044,2 88 - 33
16:05 6,9 5,2 6,4 ZW 14,5 1044,2 89 - 25
16:10 6,9 5,2 9,7 ZZW 14,5 1044,2 89 - 28
16:15 6,8 5,1 13,0 ZW 16,1 1044,2 89 - 28
16:20 6,8 5,0 7,9 ZW 11,3 1044,2 88 - 23
16:25 6,8 5,0 9,7 ZZW 16,1 1044,2 88 - 16
16:30 6,8 5,0 9,7 ZW 14,5 1044,2 88 - 11
16:35 6,8 5,0 11,1 ZW 16,1 1044,2 88 - 7
16:40 6,7 5,0 6,4 ZW 14,5 1043,9 89 - 7
16:45 6,6 4,9 4,7 ZZW 12,9 1043,9 89 - 7
16:50 6,5 4,8 9,7 ZW 11,3 1043,9 89 - 5
16:55 6,3 4,6 9,7 ZZW 11,3 1043,9 89 - 5
17:00 6,1 4,6 7,9 ZW 11,3 1043,9 90 - 5
17:05 6,1 4,6 6,4 ZW 8,0 1043,9 90 - -
17:10 5,9 4,4 4,7 ZW 12,9 1043,9 90 - -
17:15 5,8 4,3 7,9 ZW 11,3 1043,9 90 - -
17:20 5,7 4,2 11,1 ZW 11,3 1043,9 90 - -
17:25 5,6 4,2 7,9 ZZW 9,7 1043,9 91 - -
17:30 5,5 4,1 6,4 ZZW 11,3 1043,9 91 - -
17:35 5,4 4,0 6,4 ZW 8,0 1043,9 91 - -
17:40 5,3 4,0 6,4 ZW 11,3 1043,9 91 - -
17:45 5,2 3,9 7,9 ZW 9,7 1043,9 91 - -
17:50 5,0 3,7 7,9 ZW 9,7 1043,9 91 - -
17:55 4,9 3,6 6,4 ZZW 9,7 1043,9 91 - -
18:00 4,8 3,5 4,7 ZW 8,0 1043,6 91 - -
18:05 4,7 3,5 4,7 ZW 8,0 1043,6 92 - -
18:10 4,6 3,4 4,7 ZW 6,4 1043,9 92 - -
18:15 4,4 3,2 4,7 ZW 6,4 1043,9 92 - -

Download your copy of this data-set  here

Our weather-data as stored at Weather Underground. Script ontwikkeld door Jim McMurry. Aangepast voor de template door Leuven-Template.eu

Apparatuur in gebruik:

Weerstation
Davis Vantage pro 2

Weerprogramma
Meteobridge

Weercomputer
TP-Link TL-WR703N

Webleverancier
Versio

Davis Vantage pro 2

Meteobridge

TP-Link TL-WR703N

Versio